Location: Unspecified
(0.0000°N, 0.0000°E)
Time: 17:39:54
(UTC+02:00)

ARIANE DEB (SPELDA) - Visible Passes

Search period start: 27 June 2017 00:00
Search period end: 07 July 2017 00:00
Orbit: 293 x 32933 km, 3.5° (Epoch: 26 June)

Date Brightness Start Highest point End Pass type
(mag) Time Alt. Az. Time Alt. Az. Time Alt. Az.
27 Jun 7.8 23:07:44 10° W 00:58:05 70° W 08:05:44 10° E visible
28 Jun 7.4 18:04:56 10° W 01:10:29 52° E 02:57:03 10° E visible
29 Jun 7.7 23:20:37 10° W 01:10:28 65° W 08:17:23 10° E visible
30 Jun 7.7 18:16:29 10° W 01:22:36 56° E 03:10:26 10° E visible
01 Jul 7.6 23:33:26 10° W 01:22:36 60° W 08:28:47 10° E visible
02 Jul 7.9 18:27:50 10° W 01:34:35 61° E 03:23:20 10° E visible
03 Jul 7.5 23:46:15 10° W 01:34:25 56° W 08:39:57 10° E visible
04 Jul 8.0 18:38:58 10° W 01:46:23 65° E 03:35:45 10° E visible
05 Jul 7.3 23:59:04 10° W 01:45:57 52° W 08:50:53 10° E visible
